Simultaneous Nadir Overpasses (SNOs) Predictions

Prediction of SNOs between GOES-15 and METOP-A Satellite Orbit:

Table of predicted SNOs for the next 14.0 days since TLE Epoch: 11/25/2016
Index Date Time (GOES-15) GOES-15 Lat,Lon METOP-A Lat,Lon Distance(km) Time Diff (sec)
1 11/26/2016 06:46:35 0.19,-135.38 -0.56,-138.87 397.28 80
2 11/27/2016 06:23:16 0.20,-135.38 0.56,-133.87 172.34 80
3 11/28/2016 18:44:46 -0.19,-135.38 0.49,-138.42 346.43 80
4 11/29/2016 18:21:27 -0.19,-135.38 -0.63,-133.43 223.12 80
5 12/01/2016 06:43:07 0.18,-135.39 -0.38,-138.02 299.32 80
6 12/02/2016 06:19:46 0.18,-135.39 0.68,-133.02 269.49 80
7 12/03/2016 18:41:18 -0.17,-135.37 0.32,-137.58 250.87 80
8 12/04/2016 18:17:58 -0.17,-135.37 -0.81,-132.58 317.88 80
9 12/06/2016 06:39:38 0.16,-135.36 -0.25,-137.17 205.38 80
10 12/07/2016 06:16:18 0.16,-135.35 0.88,-132.17 362.64 80
11 12/08/2016 18:37:48 -0.15,-135.33 0.19,-136.72 159.26 80




NCC Satellite Simultaneous Nadir Overpasses (SNOs) Prediction Service
